Location: Unspecified
(0.0000°N, 0.0000°E)
Time: 19:32:53
(UTC+00:00)

Vanguard 1 - Pass Details

Date: 19 April 2026
Orbit: 654 x 3817 km, 34.2° (Epoch: 18 May)

Event Time Altitude Azimuth Distance (km) Brightness Sun altitude
Rises 18:28:57 0° 229° (SW) 4,929 14.2 -7.3°
Reaches altitude 10° 18:31:36 10° 228° (SW) 4,252 13.8 -8.0°
Maximum altitude 18:44:16 80° 141° (SE) 2,833 12.3 -11.1°
Drops below altitude 10° 19:06:12 10° 56° (NE) 6,832 13.9 -16.4°
Sets 19:11:49 0° 55° (NE) 7,944 14.3 -17.8°
